Theta_e
314 311 313 313 312 312 313 311 311 312 311 313 311 311 311 313 314 314 314 319 319 319 320 320 320 319 320 320 319 318 317 318 318 319 322 329 330 330 331 341 343 345 347 345
312 313 313 313 314 314 314 314 313 312 314 313 312 313 311 312 313 314 319 318 319 319 321 321 322 320 320 320 320 320 320 317 318 319 319 321 327 324 322 322 329 329 342 345
313 315 315 315 315 315 314 314 313 313 313 311 311 313 313 312 314 318 318 318 318 319 320 321 321 322 322 322 321 320 320 319 317 319 319 320 326 326 324 325 327 335 338 341
313 314 316 316 315 315 315 314 313 313 312 311 312 313 313 312 315 316 318 319 318 319 320 320 321 321 322 322 323 321 320 320 318 319 320 320 321 321 321 320 320 320 320 334
315 316 316 315 315 314 314 313 312 312 311 312 311 309 310 314 317 316 316 319 318 317 318 319 319 319 319 321 322 324 323 319 319 319 320 320 320 320 320 320 320 320 320 320
314 317 315 315 314 313 313 311 310 308 308 309 312 312 312 313 317 317 318 318 318 316 315 316 317 318 319 319 320 322 323 323 323 320 321 322 320 320 321 321 320 320 320 319
315 315 315 315 314 312 311 309 308 310 309 311 311 313 312 311 316 317 318 317 316 314 313 313 313 314 317 318 318 318 319 322 324 325 322 321 323 320 320 321 320 320 320 321
316 317 316 316 314 314 312 310 308 312 312 313 312 315 314 313 316 317 317 315 314 313 312 312 312 312 312 312 315 317 318 320 321 324 326 326 323 327 321 321 320 320 321 320
315 317 315 315 314 313 312 309 310 308 311 315 313 313 312 315 315 316 315 314 312 312 311 311 312 311 310 310 311 312 315 317 321 321 326 326 326 326 329 322 322 324 321 324
314 315 314 315 313 312 313 311 311 308 314 319 314 313 314 312 313 312 313 312 312 312 312 312 311 310 308 308 307 309 311 314 318 321 322 327 328 327 328 328 326 328 326 327
314 310 314 314 314 312 312 311 314 315 318 318 317 313 308 312 312 311 311 312 312 311 311 311 311 310 307 308 309 309 310 313 317 322 320 322 325 328 324 327 326 326 326 328
314 310 312 314 313 312 311 311 311 308 313 311 316 316 312 310 312 313 313 313 311 311 311 311 311 308 308 308 308 308 309 312 316 321 322 322 326 327 329 328 326 327 328 329
312 308 307 313 310 310 313 312 311 312 312 317 318 315 312 313 314 313 312 311 311 311 311 310 307 307 307 308 307 308 309 312 316 320 322 320 323 320 327 329 328 328 327 329
316 310 312 314 312 311 313 314 315 315 317 316 315 315 314 314 312 311 311 311 310 310 309 307 306 306 306 307 307 307 308 310 312 317 322 320 323 323 321 321 325 326 325 326
312 312 310 312 313 314 314 315 315 316 316 317 316 316 315 313 309 310 310 309 309 308 306 305 305 305 305 306 308 307 308 309 311 312 319 321 319 324 322 322 320 324 326 324
307 311 312 313 313 314 316 315 316 315 316 316 316 315 312 310 310 309 308 308 306 305 305 305 305 305 305 305 307 307 308 309 310 311 314 320 320 318 324 320 325 327 326 324
308 310 311 312 315 317 317 316 316 315 314 311 314 313 308 309 308 308 307 305 305 304 305 305 304 303 303 305 308 307 307 309 309 311 313 318 320 319 320 325 326 326 327 324
309 309 312 316 316 315 313 314 314 314 313 313 313 309 310 309 308 306 305 305 304 305 304 304 302 302 304 306 308 309 308 310 310 310 312 316 320 318 320 327 327 326 326 324
308 310 312 310 309 311 311 315 312 312 313 310 310 310 309 307 306 305 305 305 304 303 302 302 301 302 304 307 308 308 309 309 310 309 311 315 320 318 319 324 325 324 325 325
307 311 310 307 312 312 308 313 311 311 312 310 309 307 307 306 306 306 304 302 302 301 301 300 301 302 304 309 309 309 310 309 311 309 311 315 320 317 319 325 326 320 323 325
306 305 307 308 312 310 310 310 311 308 311 310 309 308 305 304 303 302 301 302 301 300 300 300 301 303 307 308 308 309 310 309 311 310 310 313 321 319 323 325 325 322 327 327
307 300 308 304 308 307 308 309 312 311 310 309 306 304 303 302 301 301 301 300 300 299 300 301 303 305 308 310 311 310 310 309 311 309 310 313 322 319 324 325 324 325 325 326
304 307 308 308 305 306 307 308 311 310 309 305 303 303 302 301 301 301 300 299 299 299 299 302 304 306 308 310 308 308 307 309 310 308 310 319 323 318 323 322 323 323 324 325
304 306 305 307 306 307 309 310 310 308 306 304 303 302 302 301 300 299 299 299 298 298 300 302 303 306 308 309 308 309 309 308 307 308 311 320 320 319 323 322 322 321 323 322
306 307 307 306 307 309 309 310 310 305 303 302 302 301 301 299 299 299 299 298 297 299 301 302 303 306 308 308 308 308 307 307 310 310 315 319 321 319 321 319 320 322 321 322
307 307 309 310 308 307 309 308 306 303 302 302 301 300 299 299 299 298 297 297 298 299 302 303 305 306 309 307 307 308 307 309 311 312 315 317 317 318 319 320 316 317 319 319
Wind_Speed
5 6 2 6 5 7 5 4 7 5 9 3 7 11 4 13 14 18 22 21 23 22 21 23 27 27 28 24 22 29 32 33 35 33 33 34 35 33 30 32 30 32 34 31
6 2 8 5 5 2 4 3 5 5 5 5 10 19 7 6 7 16 6 15 19 25 23 23 23 16 20 22 25 30 29 35 37 38 35 35 38 37 33 30 31 31 33 37
5 8 4 3 4 5 3 1 5 7 4 6 6 17 6 5 3 5 7 14 19 19 25 26 24 23 12 11 15 21 32 30 35 40 39 37 38 36 33 33 32 32 38 39
5 4 0 1 2 2 4 2 5 10 6 5 3 14 3 1 4 3 11 13 18 20 23 25 24 24 26 27 23 18 17 20 29 38 39 39 38 38 37 34 34 32 32 39
10 3 2 2 3 2 5 5 5 9 5 3 5 3 6 3 2 5 8 7 15 17 19 23 26 28 27 25 26 25 19 14 21 35 42 40 41 38 36 36 33 28 29 34
4 4 3 3 2 4 5 5 6 4 3 1 3 4 5 4 4 5 4 10 7 13 17 18 21 23 25 25 23 23 23 21 15 25 39 45 42 40 40 39 33 30 32 34
6 5 2 4 3 3 10 6 4 6 4 5 3 4 9 6 7 6 4 6 5 6 14 21 26 29 27 28 29 29 27 24 22 18 23 36 48 40 36 39 35 30 30 35
1 6 3 3 2 3 2 5 4 5 3 6 5 6 6 8 7 7 5 3 3 11 16 20 25 30 33 33 29 30 31 27 27 28 19 24 36 47 38 34 31 32 27 28
3 4 4 5 3 4 2 1 3 1 2 4 4 6 8 6 9 8 11 5 9 12 19 25 32 35 39 41 41 36 34 30 24 26 24 22 29 39 40 35 35 24 21 24
4 6 4 1 3 2 3 4 0 2 3 5 4 5 7 6 9 9 7 10 14 18 25 31 35 44 52 51 46 42 35 32 26 23 23 18 20 30 29 24 16 18 21 22
2 3 5 2 4 7 2 2 1 3 3 3 4 6 5 11 13 7 9 13 14 22 27 32 41 56 57 55 50 39 34 27 24 17 23 21 19 18 25 19 17 17 20 19
1 3 4 10 10 4 6 7 6 4 5 5 5 14 12 9 4 9 20 19 20 26 31 34 51 51 44 44 41 33 25 23 22 15 17 17 11 10 18 24 17 13 15 16
2 2 4 10 5 1 3 5 5 3 3 10 8 8 4 9 13 19 17 17 24 29 35 42 41 37 40 36 31 30 23 19 15 13 12 13 13 19 27 23 14 10 13 16
6 5 8 10 15 4 11 13 14 6 4 10 14 22 23 17 11 14 18 25 28 34 37 43 36 36 37 32 30 27 26 24 14 9 10 11 11 13 21 19 14 10 13 14
6 8 7 14 18 15 18 21 18 15 18 11 21 21 20 13 7 9 19 20 25 34 39 36 31 31 30 32 31 27 25 25 17 12 8 10 10 17 16 14 15 13 16 16
1 7 3 10 15 14 17 18 22 20 16 14 12 14 4 8 12 15 22 29 35 40 38 35 32 32 31 32 35 30 26 22 22 13 7 12 11 9 13 18 22 21 20 19
4 3 1 5 4 8 9 11 11 4 3 4 8 15 3 11 13 25 30 37 39 39 36 38 38 40 38 34 31 30 26 22 22 17 8 9 12 12 15 20 27 24 21 19
3 2 3 5 6 5 4 3 2 3 9 10 14 7 9 15 27 34 36 36 38 31 37 41 43 44 36 32 28 27 25 23 21 20 11 7 12 12 14 17 22 22 18 21
3 2 3 2 3 14 7 3 2 5 19 2 2 10 22 23 30 33 28 25 31 37 43 42 44 39 34 32 29 25 25 23 21 21 15 7 13 10 12 18 17 19 7 22
9 2 4 2 4 4 5 3 16 1 10 3 10 12 18 25 16 21 35 41 43 43 41 41 39 36 33 27 23 22 23 25 22 23 19 8 16 11 13 18 24 26 13 19
7 5 3 3 4 7 2 18 11 3 7 23 23 26 30 17 20 41 47 43 42 42 41 39 36 34 30 28 25 26 24 26 22 24 21 10 18 13 15 26 30 28 25 23
3 0 2 3 3 7 7 21 2 10 32 21 30 30 31 39 42 42 40 40 40 43 40 37 33 31 28 23 20 25 28 25 21 25 23 11 20 16 22 31 27 29 27 24
3 5 3 5 6 17 38 24 24 27 25 29 31 40 37 38 40 39 39 38 39 40 41 33 31 32 28 26 24 22 23 21 21 25 22 18 25 17 21 26 25 25 23 27
4 4 4 3 6 14 24 31 34 27 29 37 38 35 36 35 36 38 37 38 38 40 37 31 33 34 31 18 15 11 13 16 22 25 21 28 25 20 22 21 24 18 24 32
8 5 6 8 16 19 23 21 30 31 34 35 30 34 34 35 37 37 37 38 38 36 32 33 34 25 19 12 10 10 15 19 21 27 24 30 28 26 28 26 27 24 30 31
5 6 2 6 20 27 24 33 33 31 33 32 35 36 37 35 37 37 36 35 32 32 31 32 28 17 10 8 8 16 20 15 27 26 32 32 31 28 28 29 31 27 28 26
Wind_Direction
355 47 295 248 211 227 254 230 248 267 262 281 240 270 265 254 291 302 315 345 338 332 333 318 302 292 281 281 276 264 259 255 238 233 234 235 237 242 245 251 246 254 249 247
14 268 237 249 278 262 284 286 314 304 355 318 292 285 267 214 234 284 2 358 355 355 350 358 356 302 281 289 282 271 266 252 248 242 238 235 230 236 241 250 251 254 251 251
163 245 304 314 2 23 330 116 294 271 302 262 284 280 283 263 309 318 331 345 350 351 356 0 5 15 4 340 315 283 257 253 249 243 242 235 229 231 239 244 251 253 255 256
219 288 277 341 131 98 316 285 320 307 326 280 160 290 217 332 320 300 335 358 356 356 3 12 14 18 19 20 8 337 283 255 252 243 236 232 231 234 236 244 252 257 261 253
244 280 297 159 218 220 238 329 265 287 255 334 285 356 263 351 316 307 304 352 10 21 9 11 11 15 18 13 12 11 352 282 261 248 233 235 232 238 247 247 248 254 265 259
256 288 83 180 275 111 266 340 349 44 86 3 263 99 267 277 234 291 305 56 24 6 3 12 4 6 6 6 1 355 357 350 302 249 244 235 239 242 239 238 244 253 265 268
329 312 103 35 4 354 37 41 332 346 360 233 261 320 243 264 254 237 288 48 72 46 355 1 3 1 359 357 355 354 342 342 339 297 251 248 246 242 243 240 242 259 272 269
128 315 332 353 151 272 281 149 161 258 235 268 313 239 253 227 266 307 284 143 12 347 352 354 353 352 349 347 343 341 346 333 327 335 291 261 250 247 241 238 248 259 273 271
316 260 277 304 148 119 274 167 189 200 248 274 243 282 315 271 289 288 336 325 322 331 344 346 344 341 336 332 328 328 326 332 329 319 319 265 252 249 248 238 245 268 265 265
249 288 252 237 13 14 138 180 39 15 288 255 267 266 245 295 280 280 290 289 306 325 333 337 337 332 325 319 316 312 311 312 317 328 310 292 260 252 254 259 256 259 265 266
120 140 271 260 215 223 319 311 131 136 218 279 290 258 219 287 294 274 276 278 297 317 328 331 329 324 315 309 306 301 299 296 309 308 318 306 260 243 247 240 244 258 261 259
276 187 256 249 259 261 183 204 175 129 264 230 270 275 254 251 259 306 292 288 302 321 324 320 322 319 315 310 302 300 295 295 301 288 309 300 257 219 228 226 232 240 253 256
234 295 333 313 352 7 188 194 208 177 162 240 266 272 242 282 297 275 255 292 317 316 317 317 315 311 316 316 310 305 297 295 303 268 285 310 268 234 244 232 230 237 256 248
220 200 195 253 262 230 272 262 269 233 240 273 258 278 284 287 281 284 302 316 315 312 311 310 308 313 315 313 313 300 297 287 287 296 265 301 260 232 224 240 217 247 247 230
161 234 198 251 261 271 268 277 276 257 256 256 275 278 281 294 293 297 302 304 300 299 304 306 303 309 305 306 307 305 295 283 277 287 255 256 296 244 232 236 248 232 241 228
203 275 233 277 268 257 262 268 267 271 271 261 272 281 315 319 307 303 311 311 308 305 305 304 306 307 303 298 301 299 296 284 271 276 287 237 245 280 237 217 221 226 236 226
208 221 51 263 331 319 286 255 257 262 270 197 281 284 4 324 314 311 315 311 303 298 298 302 305 303 301 304 300 295 293 286 266 263 258 236 235 273 270 238 227 223 220 219
167 181 174 282 326 263 248 37 350 275 272 270 278 321 320 307 307 307 303 293 295 299 302 301 301 303 303 303 296 291 293 285 263 248 248 226 220 248 245 216 211 213 208 211
198 164 314 247 246 283 291 45 320 285 299 300 7 316 306 309 309 301 313 307 298 297 297 297 302 306 305 299 295 286 283 281 261 238 232 228 209 249 236 210 197 199 217 209
10 213 189 262 245 279 237 318 313 233 286 149 326 306 307 316 310 304 313 308 304 304 301 301 307 305 299 294 291 279 275 273 255 232 219 224 208 235 229 187 174 175 214 201
313 316 281 285 270 281 73 348 337 32 305 312 314 308 308 300 290 297 305 304 305 303 304 308 303 301 302 303 285 269 264 265 247 228 205 225 204 219 206 188 183 181 176 168
252 215 296 331 279 284 351 347 341 292 303 308 306 307 301 301 302 302 304 304 305 308 309 314 313 310 314 303 276 259 254 256 236 215 196 222 193 205 196 183 172 175 177 179
276 199 209 213 238 283 297 291 296 308 300 309 311 310 304 300 299 301 303 307 309 310 313 318 318 318 318 302 291 263 245 229 214 197 192 194 188 197 188 180 173 176 178 170
284 268 240 301 265 271 298 303 301 308 305 312 313 304 302 299 303 305 308 309 310 311 315 319 321 315 309 293 282 243 222 200 183 180 184 181 180 180 178 180 171 173 182 167
264 295 248 257 281 307 298 298 303 311 314 315 309 308 309 312 311 311 310 310 312 315 319 321 315 310 308 282 251 196 166 167 171 172 178 173 170 170 170 169 171 182 176 174
208 231 268 283 301 290 292 308 312 313 318 316 317 317 321 323 317 318 317 317 318 321 322 323 322 319 283 265 184 161 156 164 166 166 169 167 167 168 169 167 162 165 170 176